Temp_Advection
nan nan nan nan nan nan nan nan nan nan nan nan nan nan nan nan nan nan nan nan nan nan nan nan nan nan nan nan nan nan nan nan nan nan nan nan nan nan nan nan nan nan nan nan
nan -0 -0 -0 0 0 0 0 0 -0 -0 0 0 0 -0 -0 0 0 0 0 0 0 0 0 1 1 0 0 0 0 0 -0 0 -0 -0 -0 -0 0 0 -0 0 -0 0 nan
nan -0 -0 0 -0 0 0 0 -0 -0 -0 0 0 0 1 -0 -0 0 0 0 0 0 0 0 1 0 0 0 0 0 0 -0 -0 -0 -0 -0 -0 -0 0 0 -0 -0 -0 nan
nan -0 0 0 -0 -0 -0 0 0 0 -0 0 0 0 0 -0 -0 0 1 1 1 1 1 1 1 1 0 0 0 0 0 0 -0 -0 0 0 0 -0 -0 -0 -0 -0 -0 nan
nan -0 0 -0 0 -0 0 -0 0 0 0 0 0 0 0 -0 -0 0 0 0 0 0 0 1 1 1 0 0 0 0 0 0 -0 -0 -0 -0 -0 -1 -1 -0 -0 -0 -1 nan
nan 0 -0 -0 -0 -0 -0 -0 -0 -0 0 -0 -0 0 0 -0 0 -0 -0 -0 0 0 0 0 0 0 0 0 0 1 0 -0 -0 -0 -0 -0 -0 -0 -0 -0 -0 -0 -0 nan
nan -0 0 0 -0 -0 -0 -0 0 0 -0 -0 -0 0 -0 0 -0 0 -0 -1 0 0 0 0 0 0 0 0 0 0 0 -0 -0 -0 -0 -0 -0 -0 -0 -0 -0 -0 -0 nan
nan -0 0 0 0 -0 0 0 -0 0 0 0 0 -0 0 -0 -0 -0 0 -0 0 -0 -0 -0 0 0 0 0 0 0 0 -0 -0 -0 -0 -0 -0 -0 -0 -0 -0 -0 -0 nan
nan -0 -0 0 0 0 -0 0 -0 -1 -0 0 -0 0 0 -0 -0 0 1 1 -0 -0 -0 -0 0 0 0 0 0 0 0 0 0 0 0 0 0 -0 -0 -0 -0 -0 -0 nan
nan 0 -0 0 0 -0 0 0 -0 -0 0 -0 -0 -0 0 0 0 -0 0 -0 -1 -1 -0 -0 -0 -0 0 0 0 0 0 0 0 0 0 0 0 0 -0 -0 -0 -0 -0 nan
nan 0 0 -0 0 0 0 0 -0 -0 -0 0 -0 -0 0 0 0 -0 -1 -2 -1 -1 -1 -0 -0 -0 0 1 1 1 0 0 0 0 0 0 0 -0 -0 -0 -0 -0 -0 nan
nan -0 0 0 -0 0 0 0 0 0 1 0 0 0 -0 -0 -0 -1 -1 -1 -1 -1 -0 0 0 1 1 1 1 0 0 0 0 0 0 0 0 -0 -0 -0 -0 -0 -0 nan
nan 0 -0 0 0 0 0 0 0 -0 -0 -1 -0 1 0 -0 -0 -0 -1 -1 -1 -0 0 0 0 0 1 1 1 0 0 0 0 0 0 0 0 0 0 0 0 -0 -0 nan
nan -0 -0 -0 0 -0 -0 0 0 -0 -0 -0 0 1 -0 0 0 -0 -1 -0 0 0 0 1 1 1 1 1 1 1 0 0 0 0 0 0 0 0 0 0 -0 -0 -0 nan
nan 0 0 0 0 0 0 0 0 0 -0 0 1 2 0 -0 -0 -1 -0 0 1 0 0 1 0 1 1 1 1 0 0 0 0 0 0 0 0 0 0 0 -0 -0 -0 nan
nan 0 -0 -0 0 0 -0 0 -0 -0 0 0 0 -0 1 0 1 0 0 1 1 0 0 0 0 0 1 2 1 0 0 1 0 0 0 0 0 0 0 0 0 -0 -0 nan
nan 0 0 0 -0 0 -0 1 0 0 0 0 1 2 0 0 0 -1 0 1 0 0 0 0 0 1 1 1 0 0 1 1 0 0 0 0 0 0 0 0 0 0 -0 nan
nan -0 0 0 0 -1 0 -0 0 0 0 1 -0 0 -0 -0 -0 0 0 0 0 1 1 1 0 0 0 0 0 0 0 0 0 0 0 0 1 1 0 0 0 0 0 nan
nan -0 -0 0 -0 -0 0 0 0 0 1 1 -0 -0 0 0 1 0 -0 -0 0 0 0 0 0 0 0 0 0 0 0 1 1 1 1 1 1 0 0 0 0 0 -0 nan
nan 0 0 -0 -0 -0 0 -0 0 -0 1 0 -0 0 0 1 -0 -1 -1 0 0 0 0 0 0 0 0 0 0 0 0 0 0 1 1 1 0 -0 0 1 0 0 -0 nan
nan 0 1 0 0 1 0 0 0 0 0 -1 -1 -1 -2 -0 -2 -0 0 0 0 0 1 1 0 0 0 0 0 0 0 0 0 1 1 1 0 0 0 0 0 0 -0 nan
nan -0 0 0 -0 0 -1 0 -0 -0 0 -1 -1 -1 -1 -0 0 0 0 0 0 0 1 0 0 0 0 0 0 0 0 1 1 1 1 1 0 0 0 0 0 0 -0 nan
nan 0 -0 -0 0 -0 -1 -0 -1 -0 -1 0 -0 0 0 0 0 0 0 0 0 0 0 0 0 0 0 0 0 0 1 1 1 1 1 0 0 0 1 0 -0 0 0 nan
nan 0 0 0 0 -0 -1 -1 -0 0 -0 0 0 1 0 -0 0 0 0 0 0 0 0 0 0 0 0 0 0 1 1 1 2 1 1 0 1 1 1 0 -0 1 0 nan
nan -1 -0 -0 -0 -0 -1 -1 -1 0 0 1 1 0 0 1 0 0 0 0 0 0 0 0 0 0 0 1 1 1 1 2 2 1 0 1 1 1 0 0 0 0 0 nan
nan nan nan nan nan nan nan nan nan nan nan nan nan nan nan nan nan nan nan nan nan nan nan nan nan nan nan nan nan nan nan nan nan nan nan nan nan nan nan nan nan nan nan nan
Wind_Speed
3 4 8 13 10 3 5 5 6 3 3 2 6 6 12 16 6 11 10 9 7 7 9 8 8 8 8 8 8 9 8 10 11 10 11 13 10 9 5 4 2 2 4 6
4 7 10 4 5 5 3 4 6 5 3 4 7 8 11 2 1 6 14 13 11 12 10 11 13 13 14 15 17 16 16 14 12 11 12 11 11 9 6 4 2 2 4 6
7 5 7 6 5 6 5 8 4 7 3 3 2 6 8 3 4 7 11 13 14 14 15 13 14 16 18 19 19 20 20 20 19 17 15 13 11 10 6 5 5 5 5 5
6 4 5 4 6 7 6 8 7 5 3 4 1 5 5 4 4 5 14 18 17 16 14 15 15 16 17 18 18 18 20 21 22 20 17 15 15 12 13 11 11 9 8 7
7 5 4 6 6 7 7 5 6 4 3 1 3 2 7 6 6 7 12 14 13 11 11 13 14 15 16 17 17 17 17 19 18 16 15 14 14 14 12 10 9 10 10 11
5 1 6 7 2 4 6 5 6 4 3 2 9 8 4 5 4 4 13 19 19 17 14 11 13 14 15 16 16 15 13 14 13 11 10 9 9 9 7 8 7 9 9 9
2 5 3 4 4 2 4 5 1 3 2 6 1 2 5 2 2 1 15 24 21 18 15 13 12 12 13 13 12 11 9 10 9 8 7 7 7 5 5 6 8 8 9 10
7 4 10 6 7 6 7 7 5 6 3 4 3 6 4 2 5 6 13 24 22 21 18 15 12 11 9 8 7 5 4 4 4 3 2 2 2 3 4 5 7 8 10 12
5 4 1 3 4 7 5 5 4 4 2 2 4 4 3 1 3 6 17 25 24 22 20 17 14 11 9 8 7 5 2 2 3 3 2 2 1 1 3 3 5 7 8 9
6 2 0 2 4 4 4 6 3 2 2 5 4 4 5 6 7 6 11 24 25 22 20 17 16 14 12 11 10 9 7 7 7 6 5 4 3 2 2 3 5 6 8 10
5 3 1 3 5 9 3 2 3 3 4 5 3 5 5 6 7 11 17 25 26 23 20 19 18 16 15 16 16 13 11 11 10 8 7 5 3 3 5 7 10 12 14 15
7 4 4 8 2 2 3 7 7 6 7 3 2 12 1 3 12 18 20 24 22 20 18 19 20 21 22 21 18 15 14 13 10 9 7 4 4 5 8 10 13 15 18 20
9 3 2 5 1 2 5 5 3 3 3 7 5 8 1 1 8 17 19 21 22 21 21 22 23 25 24 23 20 17 16 14 11 10 8 7 7 8 11 15 18 21 23 26
13 6 8 9 6 5 5 6 5 6 6 8 14 17 4 5 7 12 16 16 19 21 20 22 25 25 26 25 22 20 18 15 14 13 12 11 10 12 15 18 22 24 26 29
4 5 3 2 3 4 6 7 9 10 11 12 14 15 7 11 9 18 17 14 16 16 19 22 23 24 25 26 25 22 18 17 17 17 17 16 16 16 18 21 24 26 29 31
2 3 3 2 2 4 6 11 11 15 6 6 4 13 7 12 16 15 18 18 19 22 18 16 17 18 23 26 26 23 20 19 20 21 22 22 20 19 21 24 26 29 31 33
7 6 4 8 4 6 10 13 15 7 5 10 14 14 3 5 12 18 18 17 17 16 15 15 16 16 17 19 21 22 19 21 23 24 26 26 25 24 26 27 28 30 33 34
7 6 3 3 3 8 2 2 3 14 10 9 1 4 8 7 10 11 13 14 15 16 16 14 11 10 11 13 17 20 23 25 28 29 29 29 28 28 28 29 31 33 34 34
1 5 3 4 6 7 6 5 7 8 10 10 11 7 8 7 5 8 10 11 12 13 12 12 11 11 10 10 13 19 26 30 32 32 31 31 30 30 30 32 34 34 34 35
3 3 6 4 4 7 3 2 6 6 6 10 17 11 11 11 2 5 6 12 14 14 14 13 11 12 14 19 22 23 25 26 28 30 31 31 30 30 31 34 34 33 34 36
4 0 8 6 7 7 5 6 12 5 7 7 17 14 19 5 9 12 12 12 14 15 17 15 14 20 20 20 20 22 24 27 26 28 29 30 29 30 31 34 34 34 34 35
7 8 4 2 3 10 12 5 8 5 7 15 17 17 15 11 12 15 17 15 13 17 21 17 19 23 22 22 22 24 26 26 28 30 30 29 28 29 33 33 33 33 33 34
2 6 6 10 6 2 28 5 15 16 19 17 19 19 14 12 12 14 18 19 16 19 24 22 24 25 26 25 24 27 28 29 30 31 30 29 29 31 32 32 33 32 31 31
4 4 3 3 3 6 21 21 10 19 18 17 18 16 12 13 19 20 19 23 21 22 25 28 28 29 29 27 28 31 31 31 32 32 30 29 31 31 31 31 31 31 29 29
5 9 6 1 1 4 13 22 21 19 19 21 21 20 21 22 23 23 22 20 24 23 25 28 29 29 28 27 29 32 34 33 32 31 30 30 31 31 30 29 29 28 26 27
9 7 4 4 13 13 14 26 22 24 25 23 21 23 24 22 22 21 22 22 21 23 25 24 25 25 27 28 30 32 33 32 32 32 31 31 31 29 29 29 28 24 24 23
Wind_Direction
138 123 209 200 199 156 151 177 221 252 237 157 238 246 263 285 153 161 170 154 138 111 93 85 76 74 72 81 89 92 106 106 106 110 118 122 132 128 129 119 101 336 321 300
54 225 223 129 173 184 127 177 248 289 241 164 269 262 256 299 142 218 180 164 149 128 117 103 101 102 102 92 91 93 94 99 107 115 113 115 121 128 114 100 58 348 314 310
172 215 144 156 169 167 200 212 206 221 347 253 314 273 251 72 79 104 155 161 159 153 141 124 115 104 96 91 85 86 90 90 88 84 89 95 98 96 88 65 45 35 12 337
231 270 192 171 211 148 220 194 189 217 113 241 161 273 290 165 116 137 167 175 171 162 150 138 128 117 102 89 82 80 80 80 77 74 73 82 83 77 65 54 48 44 36 22
237 176 173 205 217 164 227 140 166 161 172 102 265 324 257 144 215 200 195 182 173 165 158 141 129 121 113 107 101 94 90 85 79 70 62 50 46 60 61 56 45 39 37 32
229 225 167 202 109 177 131 74 47 48 105 244 223 188 262 195 210 145 184 186 179 176 168 159 141 132 125 119 116 109 96 86 74 61 59 55 67 77 83 73 50 39 31 24
198 223 186 170 107 76 94 96 325 331 327 235 15 168 257 173 66 230 187 188 184 178 174 172 157 143 137 133 129 113 89 71 64 49 51 54 58 61 43 29 17 11 9 6
170 256 167 190 189 173 177 161 165 226 224 275 350 234 245 336 336 285 209 191 185 183 179 181 170 162 157 147 139 125 84 40 39 35 50 90 80 31 8 353 343 343 349 351
155 267 152 160 143 146 187 180 160 103 102 29 211 301 271 78 61 111 160 179 188 191 189 188 185 185 184 186 187 192 230 260 211 192 180 174 193 288 317 322 328 331 332 328
204 140 157 131 103 30 174 163 96 17 270 259 249 251 233 245 216 170 172 186 193 196 198 197 201 205 207 212 219 224 231 229 218 210 209 215 230 250 301 323 330 331 330 328
149 135 229 106 208 174 138 184 75 135 168 196 275 253 202 222 184 193 197 199 200 200 204 206 208 215 222 227 227 228 227 222 219 216 217 224 249 308 336 341 339 337 334 331
193 132 169 195 169 149 179 191 166 200 225 244 149 264 38 298 193 193 197 202 206 212 211 214 218 223 230 234 231 232 229 226 226 226 233 254 287 319 331 332 331 330 328 326
177 185 79 354 52 333 213 203 166 106 72 195 219 264 359 55 178 198 200 203 208 215 217 221 227 234 239 239 236 236 235 232 234 236 240 253 282 302 316 322 324 324 324 324
167 167 168 213 188 140 186 203 185 189 226 241 243 268 184 223 206 197 207 208 213 220 226 232 238 245 247 245 241 238 234 235 236 238 244 257 276 295 308 316 320 320 320 320
167 216 176 205 164 183 205 205 176 196 214 224 257 232 178 206 207 213 216 222 223 223 242 247 252 258 255 245 238 234 235 237 239 242 249 260 271 286 301 310 314 314 314 314
346 197 117 279 170 223 261 235 189 211 208 241 224 261 175 237 244 241 238 235 237 258 249 245 251 256 254 244 238 237 238 242 242 247 253 259 268 280 292 300 307 310 310 309
162 143 118 244 81 60 274 227 214 205 192 219 230 239 150 208 216 226 236 235 237 231 236 241 244 250 252 242 238 238 245 244 246 250 255 260 265 273 283 290 301 306 306 306
158 128 144 140 88 228 250 102 149 213 233 207 31 217 203 188 211 217 221 221 222 230 232 232 240 246 243 237 241 247 251 252 254 255 257 260 265 271 278 288 299 303 303 305
298 131 157 184 200 320 266 180 160 166 243 178 208 228 203 206 190 234 218 234 236 235 239 245 244 238 229 237 257 265 265 265 261 260 260 262 263 269 280 289 295 298 299 303
76 44 206 135 199 235 296 112 126 90 265 202 197 206 165 148 148 250 290 256 244 245 252 247 227 235 256 271 275 272 269 270 271 268 262 260 262 272 283 288 293 295 298 303
129 119 213 211 230 273 216 170 143 140 260 178 196 186 162 172 216 287 279 246 247 255 248 228 250 283 280 275 278 275 271 272 267 260 258 259 265 276 285 289 291 293 298 301
158 166 198 122 228 267 162 107 172 194 146 162 169 172 190 239 265 264 262 250 250 254 238 241 281 285 273 271 278 278 273 271 262 258 259 262 272 282 287 286 289 292 298 301
236 193 183 190 202 85 176 186 194 165 172 184 194 206 220 241 269 279 271 252 270 267 240 260 279 274 270 266 276 280 274 268 262 260 261 267 277 283 284 286 287 292 297 301
254 164 201 99 196 200 198 214 214 219 231 237 236 236 233 260 288 277 275 260 272 273 261 267 271 267 269 263 275 277 264 263 262 261 264 271 278 280 281 282 285 292 298 302
197 140 154 250 247 189 241 228 222 234 244 247 247 248 256 273 277 273 274 273 271 277 272 268 269 271 267 267 276 270 261 260 263 265 270 276 280 280 280 281 287 292 298 302
179 172 164 207 199 186 212 218 239 244 246 252 256 263 267 272 274 275 269 278 275 276 277 268 266 267 264 269 269 264 260 262 265 269 273 278 280 281 281 284 287 291 298 304
Height
1531 1537 1540 1534 1533 1535 1539 1545 1543 1537 1534 1535 1535 1536 1530 1525 1527 1529 1531 1533 1534 1534 1533 1532 1533 1532 1532 1531 1529 1528 1528 1527 1527 1529 1530 1532 1537 1538 1540 1540 1542 1543 1544 1544
1536 1537 1525 1528 1533 1536 1538 1542 1544 1539 1534 1537 1535 1536 1528 1526 1527 1529 1529 1531 1533 1534 1536 1535 1533 1533 1533 1534 1532 1531 1529 1529 1530 1529 1530 1534 1536 1539 1542 1541 1540 1541 1543 1544
1531 1524 1522 1527 1532 1536 1539 1540 1541 1539 1535 1534 1535 1535 1523 1526 1526 1528 1531 1532 1532 1531 1530 1533 1535 1535 1535 1536 1538 1535 1533 1533 1533 1534 1533 1534 1537 1539 1541 1542 1541 1540 1540 1542
1528 1520 1522 1526 1527 1530 1538 1529 1532 1535 1541 1547 1535 1544 1522 1520 1526 1527 1527 1528 1530 1532 1533 1532 1532 1532 1535 1537 1541 1541 1540 1537 1537 1539 1540 1539 1538 1541 1541 1542 1542 1542 1541 1541
1520 1520 1522 1524 1522 1525 1528 1527 1532 1534 1541 1541 1539 1547 1521 1516 1520 1524 1527 1531 1534 1538 1539 1535 1535 1533 1534 1534 1538 1540 1540 1540 1540 1540 1541 1542 1541 1541 1542 1543 1543 1542 1542 1542
1516 1515 1516 1516 1518 1520 1524 1530 1536 1544 1544 1553 1532 1533 1524 1518 1510 1518 1523 1525 1528 1533 1537 1542 1536 1534 1535 1535 1536 1538 1540 1539 1541 1540 1540 1539 1540 1541 1543 1542 1543 1544 1542 1542
1515 1513 1511 1512 1517 1521 1524 1532 1546 1552 1558 1539 1531 1535 1517 1513 1513 1516 1518 1523 1528 1531 1534 1540 1540 1538 1537 1537 1538 1539 1540 1539 1540 1540 1540 1540 1541 1542 1542 1542 1543 1543 1543 1542
1517 1517 1509 1505 1507 1515 1523 1525 1540 1545 1553 1540 1538 1529 1507 1516 1515 1511 1515 1521 1527 1528 1530 1536 1539 1539 1541 1541 1540 1539 1540 1540 1539 1540 1541 1541 1542 1543 1543 1542 1543 1543 1541 1542
1510 1505 1502 1502 1503 1506 1521 1526 1522 1537 1575 1559 1525 1519 1518 1514 1512 1513 1512 1518 1524 1528 1529 1533 1537 1538 1539 1541 1541 1539 1538 1538 1539 1539 1541 1541 1541 1542 1542 1542 1542 1542 1543 1543
1493 1502 1501 1503 1503 1508 1509 1510 1526 1540 1544 1550 1518 1518 1511 1516 1512 1512 1512 1515 1519 1524 1526 1530 1534 1537 1537 1538 1539 1538 1538 1538 1537 1538 1539 1540 1540 1540 1541 1541 1541 1541 1542 1541
1490 1493 1506 1504 1505 1507 1513 1514 1517 1521 1529 1526 1538 1508 1503 1503 1511 1511 1508 1512 1516 1517 1522 1527 1530 1533 1533 1534 1534 1535 1536 1537 1537 1536 1536 1537 1538 1539 1538 1538 1539 1538 1538 1537
1484 1495 1512 1501 1500 1500 1500 1502 1504 1510 1521 1531 1524 1491 1504 1501 1500 1506 1506 1509 1512 1516 1518 1523 1526 1527 1528 1529 1530 1531 1532 1534 1534 1534 1534 1534 1535 1535 1536 1536 1536 1535 1534 1532
1478 1494 1519 1508 1501 1503 1501 1500 1500 1506 1511 1517 1513 1498 1502 1502 1503 1504 1506 1505 1508 1511 1514 1519 1522 1523 1524 1525 1528 1529 1529 1530 1531 1531 1532 1532 1533 1533 1532 1532 1532 1530 1528 1527
1468 1480 1482 1483 1488 1489 1498 1497 1500 1497 1499 1492 1494 1495 1504 1503 1504 1504 1503 1503 1505 1506 1510 1513 1515 1518 1519 1521 1523 1525 1526 1527 1528 1529 1529 1529 1529 1530 1529 1528 1527 1526 1524 1522
1469 1479 1478 1476 1479 1485 1483 1486 1495 1495 1490 1488 1482 1494 1498 1496 1499 1500 1500 1501 1502 1504 1507 1508 1510 1511 1514 1515 1518 1519 1520 1522 1523 1524 1524 1525 1525 1525 1525 1524 1523 1522 1520 1517
1471 1476 1480 1488 1485 1486 1485 1479 1487 1485 1486 1489 1496 1492 1489 1492 1495 1496 1496 1498 1498 1501 1503 1504 1504 1505 1506 1508 1511 1513 1516 1518 1518 1519 1519 1520 1520 1520 1520 1520 1518 1517 1514 1511
1472 1479 1487 1473 1495 1489 1485 1473 1475 1477 1479 1478 1485 1478 1484 1487 1488 1489 1491 1493 1495 1497 1498 1499 1500 1500 1501 1503 1507 1509 1510 1512 1513 1512 1513 1514 1514 1515 1514 1514 1512 1510 1508 1505
1466 1471 1478 1490 1496 1485 1460 1466 1465 1467 1471 1476 1480 1481 1480 1481 1482 1484 1486 1489 1491 1492 1493 1494 1495 1496 1497 1499 1503 1505 1507 1506 1506 1506 1507 1508 1508 1508 1508 1507 1505 1503 1501 1498
1460 1465 1481 1477 1484 1471 1454 1464 1467 1467 1467 1467 1473 1471 1475 1477 1480 1481 1483 1486 1487 1488 1489 1490 1491 1493 1493 1496 1498 1499 1501 1500 1499 1500 1501 1501 1502 1502 1501 1500 1499 1497 1494 1491
1462 1462 1461 1491 1479 1467 1450 1454 1457 1461 1472 1459 1461 1464 1469 1475 1486 1477 1480 1482 1482 1483 1484 1486 1487 1489 1492 1493 1492 1492 1493 1493 1493 1493 1494 1495 1495 1495 1495 1493 1491 1489 1486 1483
1469 1471 1457 1466 1460 1461 1454 1453 1456 1474 1460 1452 1457 1461 1466 1470 1471 1474 1476 1476 1477 1479 1480 1481 1483 1485 1485 1486 1486 1486 1486 1486 1487 1487 1487 1488 1489 1488 1488 1486 1484 1481 1479 1475
1454 1463 1475 1476 1468 1454 1447 1456 1459 1451 1448 1452 1456 1459 1462 1464 1467 1469 1470 1472 1473 1474 1474 1476 1476 1477 1479 1479 1479 1479 1479 1479 1479 1480 1481 1482 1482 1481 1480 1478 1476 1474 1471 1467
1447 1439 1449 1446 1441 1439 1441 1440 1443 1445 1449 1452 1454 1455 1456 1459 1461 1464 1465 1466 1466 1467 1469 1470 1470 1471 1472 1472 1472 1472 1472 1472 1473 1473 1474 1474 1474 1473 1472 1470 1469 1466 1463 1459
1437 1434 1438 1440 1437 1436 1437 1439 1441 1444 1446 1448 1448 1450 1452 1454 1454 1456 1458 1458 1459 1461 1462 1464 1463 1463 1464 1465 1465 1465 1465 1465 1466 1466 1467 1467 1466 1465 1464 1462 1461 1458 1455 1451
1424 1428 1435 1437 1433 1434 1434 1435 1437 1440 1441 1441 1442 1445 1446 1447 1448 1449 1450 1450 1452 1453 1454 1455 1455 1455 1456 1457 1457 1457 1457 1458 1458 1459 1459 1459 1458 1457 1456 1455 1453 1450 1448 1444
1414 1415 1423 1429 1421 1424 1427 1429 1431 1432 1432 1434 1437 1438 1439 1441 1440 1442 1442 1444 1444 1445 1445 1445 1446 1447 1448 1449 1449 1449 1450 1451 1451 1450 1450 1450 1449 1448 1447 1445 1444 1443 1439 1436